TimeMST,TemperatureF,Dew PointF,Humidity,Sea Level PressureIn,VisibilityMPH,Wind Direction,Wind SpeedMPH,Gust SpeedMPH,PrecipitationIn,Events,Conditions,WindDirDegrees,DateUTC
12:51 AM,78.1,39.0,25,29.83,10.0,ESE,3.5,-,N/A,,Scattered Clouds,110,2012-10-06 07:51:00
1:51 AM,77.0,39.0,25,29.83,10.0,East,3.5,-,N/A,,Scattered Clouds,80,2012-10-06 08:51:00
2:51 AM,75.0,37.9,26,29.82,10.0,East,5.8,-,N/A,,Scattered Clouds,100,2012-10-06 09:51:00
3:51 AM,73.9,39.9,29,29.81,10.0,East,8.1,-,N/A,,Scattered Clouds,100,2012-10-06 10:51:00
4:51 AM,72.0,39.9,31,29.82,10.0,East,5.8,-,N/A,,Scattered Clouds,90,2012-10-06 11:51:00
5:51 AM,71.1,37.9,30,29.84,10.0,ESE,6.9,-,N/A,,Scattered Clouds,110,2012-10-06 12:51:00
6:51 AM,71.1,37.0,29,29.85,10.0,ESE,6.9,-,N/A,,Mostly Cloudy,120,2012-10-06 13:51:00
7:51 AM,73.9,37.0,26,29.86,10.0,ESE,8.1,-,N/A,,Mostly Cloudy,110,2012-10-06 14:51:00
8:51 AM,77.0,39.0,25,29.87,10.0,East,6.9,-,N/A,,Mostly Cloudy,100,2012-10-06 15:51:00
9:51 AM,81.0,42.1,25,29.86,10.0,SE,4.6,-,N/A,,Overcast,140,2012-10-06 16:51:00
10:51 AM,84.9,43.0,23,29.85,10.0,Variable,4.6,-,N/A,,Overcast,0,2012-10-06 17:51:00
11:51 AM,88.0,41.0,19,29.83,10.0,Calm,Calm,-,N/A,,Overcast,0,2012-10-06 18:51:00
12:51 PM,89.6,39.2,17,29.86,10.0,Calm,Calm,-,N/A,,Overcast,0,2012-10-06 19:51:00
1:51 PM,91.0,39.0,16,29.78,10.0,Calm,Calm,-,N/A,,Overcast,0,2012-10-06 20:51:00
2:51 PM,91.4,39.2,16,29.81,10.0,East,6.9,-,N/A,,Overcast,100,2012-10-06 21:51:00
3:51 PM,91.4,39.2,16,29.80,10.0,Variable,3.5,-,N/A,,Overcast,0,2012-10-06 22:51:00
4:51 PM,90.0,39.0,17,29.74,10.0,NW,5.8,-,N/A,,Overcast,320,2012-10-06 23:51:00
5:51 PM,89.1,39.0,17,29.75,10.0,North,4.6,-,N/A,,Mostly Cloudy,350,2012-10-07 00:51:00
6:51 PM,89.1,39.0,17,29.75,10.0,NNW,4.6,-,N/A,,Mostly Cloudy,340,2012-10-07 01:51:00
7:51 PM,88.0,41.0,19,29.75,10.0,Calm,Calm,-,N/A,,Mostly Cloudy,0,2012-10-07 02:51:00
8:51 PM,84.9,42.1,22,29.76,10.0,Calm,Calm,-,N/A,,Mostly Cloudy,0,2012-10-07 03:51:00
9:51 PM,82.4,44.6,26,29.81,10.0,Calm,Calm,-,N/A,,Scattered Clouds,0,2012-10-07 04:51:00
10:51 PM,82.0,46.0,28,29.76,10.0,East,3.5,-,N/A,,Mostly Cloudy,90,2012-10-07 05:51:00
11:51 PM,80.6,42.8,26,29.81,10.0,East,8.1,-,N/A,,Mostly Cloudy,80,2012-10-07 06:51:00